ACH1641 NZAA-NFTF

Flight info

Callsign ACH1641
Flight time N/A
Altitude 39000
Route ELPAK B575 RUSPO/N0462F410 B575 KETUP KETUP1A
Aircraft A339/H-SADE1E2E3GHIJ3J5M1P2RWXY/LB2D1

Departure

Time N/A
Airport Auckland International Airport (NZAA)

Arrival

Time 2026-04-24 20:43
Airport Fua'amotu International Airport (NFTF)
Time Latitude Longitude Altitude Speed Heading
2026-04-24 18:54 -32.54946 178.04112 39179 ft 472 kts 13°
2026-04-24 18:55 -32.46424 178.09912 39179 ft 474 kts 13°
2026-04-24 18:56 -32.40661 178.13823 39179 ft 476 kts 13°
2026-04-24 18:56 -32.34969 178.17691 39180 ft 474 kts 13°
2026-04-24 18:57 -32.29234 178.21578 39178 ft 473 kts 13°
2026-04-24 18:57 -32.23547 178.25424 39179 ft 474 kts 13°
2026-04-24 18:58 -32.17804 178.29301 39181 ft 475 kts 13°
2026-04-24 18:58 -32.12067 178.33170 39180 ft 475 kts 13°
2026-04-24 18:59 -32.06353 178.37019 39181 ft 476 kts 12°
2026-04-24 18:59 -32.00613 178.40881 39181 ft 473 kts 12°
2026-04-24 19:00 -31.94903 178.44717 39180 ft 473 kts 12°
2026-04-24 19:00 -31.89138 178.48576 39186 ft 476 kts 12°
2026-04-24 19:01 -31.83432 178.52400 39182 ft 475 kts 13°
2026-04-24 19:01 -31.77649 178.56268 39179 ft 477 kts 12°
2026-04-24 19:02 -31.72870 178.59467 39180 ft 474 kts 12°
2026-04-24 19:02 -31.66196 178.63917 39182 ft 476 kts 12°
2026-04-24 19:03 -31.60416 178.67761 39177 ft 478 kts 12°
2026-04-24 19:03 -31.54682 178.71579 39180 ft 473 kts 11°
2026-04-24 19:04 -31.48968 178.75371 39183 ft 475 kts 12°
2026-04-24 19:04 -31.43205 178.79193 39182 ft 475 kts 12°
2026-04-24 19:05 -31.37469 178.82983 39182 ft 477 kts 12°
2026-04-24 19:05 -31.31712 178.86793 39182 ft 476 kts 12°
2026-04-24 19:06 -31.25963 178.90595 39180 ft 473 kts 12°
2026-04-24 19:06 -31.20238 178.94367 39182 ft 472 kts 12°
2026-04-24 19:07 -31.14513 178.98132 39183 ft 476 kts 12°
2026-04-24 19:07 -31.08745 179.01921 39184 ft 475 kts 12°
2026-04-24 19:08 -31.03030 179.05682 39183 ft 472 kts 12°
2026-04-24 19:08 -30.97310 179.09428 39180 ft 472 kts 12°
2026-04-24 19:09 -30.91552 179.13193 39179 ft 474 kts 12°
2026-04-24 19:09 -30.85827 179.16937 39180 ft 474 kts 12°
2026-04-24 19:10 -30.80078 179.20692 39179 ft 476 kts 12°
2026-04-24 19:10 -30.74312 179.24452 39179 ft 471 kts 12°
2026-04-24 19:11 -30.68585 179.28180 39177 ft 472 kts 12°
2026-04-24 19:11 -30.62847 179.31911 39174 ft 473 kts 12°
2026-04-24 19:12 -30.57081 179.35651 39175 ft 474 kts 13°
2026-04-24 19:12 -30.51367 179.39363 39175 ft 475 kts 12°
2026-04-24 19:13 -30.46548 179.42482 39172 ft 471 kts 13°
2026-04-24 19:13 -30.39875 179.46802 39176 ft 470 kts 13°
2026-04-24 19:14 -30.34178 179.50479 39174 ft 472 kts 13°
2026-04-24 19:14 -30.28417 179.54192 39177 ft 472 kts 13°
2026-04-24 19:15 -30.22687 179.57886 39175 ft 471 kts 13°
2026-04-24 19:15 -30.16946 179.61575 39175 ft 472 kts 13°
2026-04-24 19:16 -30.08348 179.67102 39171 ft 471 kts 13°
2026-04-24 19:16 -30.02632 179.70770 39179 ft 471 kts 13°
2026-04-24 19:17 -29.96902 179.74431 39180 ft 472 kts 13°
2026-04-24 19:17 -29.91204 179.78069 39179 ft 471 kts 13°
2026-04-24 19:18 -29.85444 179.81738 39181 ft 473 kts 13°
2026-04-24 19:18 -29.79706 179.85397 39180 ft 472 kts 13°
2026-04-24 19:19 -29.73961 179.89055 39179 ft 472 kts 13°
2026-04-24 19:19 -29.68204 179.92715 39180 ft 473 kts 13°
2026-04-24 19:20 -29.62454 179.96367 39180 ft 471 kts 13°
2026-04-24 19:20 -29.56695 -179.99982 39179 ft 471 kts 13°
2026-04-24 19:21 -29.50992 -179.96368 39179 ft 472 kts 13°
2026-04-24 19:21 -29.45227 -179.92726 39177 ft 472 kts 13°
2026-04-24 19:22 -29.39478 -179.89094 39179 ft 473 kts 13°
2026-04-24 19:22 -29.33702 -179.85452 39177 ft 474 kts 13°
2026-04-24 19:23 -29.27933 -179.81818 39177 ft 473 kts 14°
2026-04-24 19:23 -29.22180 -179.78194 39177 ft 472 kts 14°
2026-04-24 19:24 -29.16414 -179.74573 39178 ft 474 kts 14°
2026-04-24 19:24 -29.10620 -179.70940 39178 ft 475 kts 14°
2026-04-24 19:25 -29.04831 -179.67311 39174 ft 474 kts 14°
2026-04-24 19:25 -28.99021 -179.63675 39171 ft 476 kts 14°
2026-04-24 19:26 -28.93235 -179.60057 39173 ft 475 kts 14°
2026-04-24 19:26 -28.87442 -179.56441 39172 ft 477 kts 14°
2026-04-24 19:27 -28.81609 -179.52803 39174 ft 475 kts 14°
2026-04-24 19:27 -28.75838 -179.49205 39164 ft 474 kts 14°
2026-04-24 19:28 -28.70080 -179.45627 39167 ft 472 kts 14°
2026-04-24 19:28 -28.64311 -179.42044 39167 ft 473 kts 14°
2026-04-24 19:29 -28.55635 -179.36662 39164 ft 471 kts 14°
2026-04-24 19:30 -28.49899 -179.33115 39164 ft 472 kts 14°
2026-04-24 19:30 -28.44136 -179.29549 39165 ft 471 kts 14°
2026-04-24 19:31 -28.38397 -179.26007 39164 ft 471 kts 14°
2026-04-24 19:31 -28.32626 -179.22444 39165 ft 470 kts 14°
2026-04-24 19:32 -28.26920 -179.18927 39162 ft 470 kts 14°
2026-04-24 19:32 -28.21155 -179.15382 39162 ft 468 kts 15°
2026-04-24 19:33 -28.15434 -179.11867 39164 ft 469 kts 15°
2026-04-24 19:33 -28.09717 -179.08359 39164 ft 469 kts 15°
2026-04-24 19:34 -28.03979 -179.04843 39159 ft 469 kts 15°
2026-04-24 19:34 -27.98246 -179.01327 39160 ft 467 kts 15°
2026-04-24 19:35 -27.92531 -178.97835 39162 ft 469 kts 15°
2026-04-24 19:35 -27.86773 -178.94321 39161 ft 470 kts 16°
2026-04-24 19:36 -27.81035 -178.90822 39158 ft 473 kts 16°
2026-04-24 19:36 -27.75264 -178.87300 39161 ft 473 kts 16°
2026-04-24 19:37 -27.69444 -178.83758 39157 ft 472 kts 16°
2026-04-24 19:37 -27.63711 -178.80270 39164 ft 471 kts 16°
2026-04-24 19:38 -27.57920 -178.76759 39159 ft 473 kts 16°
2026-04-24 19:38 -27.52094 -178.73224 39162 ft 474 kts 16°
2026-04-24 19:39 -27.46288 -178.69711 39157 ft 475 kts 17°
2026-04-24 19:39 -27.40474 -178.66194 39162 ft 477 kts 17°
2026-04-24 19:40 -27.34665 -178.62677 39159 ft 473 kts 16°
2026-04-24 19:40 -27.28818 -178.59157 39158 ft 476 kts 17°
2026-04-24 19:41 -27.22985 -178.55637 39163 ft 477 kts 17°
2026-04-24 19:41 -27.17142 -178.52116 39159 ft 475 kts 17°
2026-04-24 19:42 -27.11334 -178.48624 39151 ft 475 kts 17°
2026-04-24 19:42 -27.05467 -178.45103 39158 ft 477 kts 17°
2026-04-24 19:43 -26.99632 -178.41603 39156 ft 478 kts 17°
2026-04-24 19:43 -26.93741 -178.38075 39143 ft 480 kts 17°
2026-04-24 19:44 -26.87893 -178.34569 39154 ft 478 kts 17°
2026-04-24 19:44 -26.82001 -178.31045 39149 ft 478 kts 17°
2026-04-24 19:45 -26.76193 -178.27577 39153 ft 477 kts 17°
2026-04-24 19:45 -26.70335 -178.24083 39144 ft 477 kts 17°
2026-04-24 19:46 -26.64479 -178.20599 39144 ft 475 kts 17°
2026-04-24 19:46 -26.58666 -178.17140 39147 ft 477 kts 17°
2026-04-24 19:47 -26.52783 -178.13644 39141 ft 476 kts 17°
2026-04-24 19:47 -26.46956 -178.10185 39144 ft 475 kts 17°
2026-04-24 19:48 -26.41140 -178.06734 39141 ft 474 kts 17°
2026-04-24 19:48 -26.32394 -178.01559 39140 ft 474 kts 17°
2026-04-24 19:49 -26.20765 -177.94688 39144 ft 473 kts 17°
2026-04-24 19:50 -26.09152 -177.87843 39135 ft 472 kts 17°
2026-04-24 19:51 -26.00429 -177.82712 39136 ft 474 kts 17°
2026-04-24 19:52 -25.91688 -177.77576 39140 ft 471 kts 17°
2026-04-24 19:52 -25.85930 -177.74199 39143 ft 471 kts 17°
2026-04-24 19:53 -25.80137 -177.70807 39138 ft 471 kts 18°
2026-04-24 19:54 -25.71398 -177.65695 39137 ft 472 kts 18°
2026-04-24 19:54 -25.65589 -177.62302 39132 ft 474 kts 18°
2026-04-24 19:55 -25.60731 -177.59467 39130 ft 472 kts 18°
2026-04-24 19:55 -25.53929 -177.55501 39129 ft 474 kts 18°
2026-04-24 19:56 -25.48098 -177.52101 39128 ft 474 kts 18°
2026-04-24 19:56 -25.42252 -177.48704 39125 ft 474 kts 19°
2026-04-24 19:57 -25.36418 -177.45314 39123 ft 475 kts 19°
2026-04-24 19:57 -25.30555 -177.41910 39123 ft 475 kts 19°
2026-04-24 19:58 -25.24711 -177.38522 39122 ft 476 kts 19°
2026-04-24 19:58 -25.18851 -177.35126 39122 ft 475 kts 19°
2026-04-24 19:59 -25.13005 -177.31741 39119 ft 475 kts 18°
2026-04-24 19:59 -25.07183 -177.28377 39116 ft 475 kts 19°
2026-04-24 20:00 -25.01345 -177.25003 39116 ft 474 kts 19°
2026-04-24 20:00 -24.95453 -177.21614 39119 ft 475 kts 19°
2026-04-24 20:01 -24.89624 -177.18271 39112 ft 474 kts 19°
2026-04-24 20:01 -24.83755 -177.14905 39111 ft 474 kts 19°
2026-04-24 20:02 -24.78881 -177.12108 39108 ft 473 kts 19°
2026-04-24 20:02 -24.72058 -177.08199 39110 ft 474 kts 19°
2026-04-24 20:03 -24.66226 -177.04858 39106 ft 473 kts 19°
2026-04-24 20:03 -24.60361 -177.01504 39110 ft 474 kts 19°
2026-04-24 20:04 -24.54735 -176.98292 39103 ft 473 kts 20°
2026-04-24 20:04 -24.48879 -176.94951 39103 ft 473 kts 20°
2026-04-24 20:05 -24.43053 -176.91631 39099 ft 473 kts 20°
2026-04-24 20:05 -24.37212 -176.88304 39096 ft 473 kts 20°
2026-04-24 20:06 -24.31367 -176.84979 39091 ft 474 kts 20°
2026-04-24 20:06 -24.25499 -176.81644 39086 ft 473 kts 20°
2026-04-24 20:07 -24.20623 -176.78876 39084 ft 472 kts 20°
2026-04-24 20:07 -24.13821 -176.75023 39084 ft 473 kts 20°
2026-04-24 20:08 -24.07973 -176.71709 39074 ft 472 kts 20°
2026-04-24 20:08 -24.02160 -176.68419 39076 ft 472 kts 20°
2026-04-24 20:09 -23.96332 -176.65123 39076 ft 471 kts 20°
2026-04-24 20:09 -23.90514 -176.61838 39076 ft 472 kts 20°
2026-04-24 20:10 -23.84653 -176.58533 39077 ft 472 kts 20°
2026-04-24 20:10 -23.78834 -176.55254 39076 ft 472 kts 20°
2026-04-24 20:11 -23.72973 -176.51953 39076 ft 473 kts 20°
2026-04-24 20:11 -23.67128 -176.48665 39076 ft 473 kts 20°
2026-04-24 20:12 -23.61293 -176.45387 39076 ft 472 kts 20°
2026-04-24 20:12 -23.55441 -176.42104 39076 ft 473 kts 21°
2026-04-24 20:13 -23.49613 -176.38835 39076 ft 474 kts 21°
2026-04-24 20:13 -23.43736 -176.35542 39076 ft 474 kts 20°
2026-04-24 20:14 -23.37855 -176.32251 39075 ft 474 kts 20°
2026-04-24 20:14 -23.32024 -176.28992 38840 ft 473 kts 20°
2026-04-24 20:14 -23.29068 -176.27342 37973 ft 479 kts 20°
2026-04-24 20:15 -23.26089 -176.25684 36904 ft 486 kts 20°
2026-04-24 20:15 -23.23085 -176.24013 35972 ft 489 kts 21°
2026-04-24 20:15 -23.20029 -176.22310 35142 ft 490 kts 21°
2026-04-24 20:15 -23.17021 -176.20631 34339 ft 490 kts 21°
2026-04-24 20:16 -23.13969 -176.18929 33479 ft 491 kts 21°
2026-04-24 20:16 -23.10934 -176.17238 32586 ft 493 kts 21°
2026-04-24 20:16 -23.07875 -176.15536 31701 ft 496 kts 21°
2026-04-24 20:16 -23.04822 -176.13840 30817 ft 498 kts 22°
2026-04-24 20:17 -23.01744 -176.12129 29932 ft 500 kts 22°
2026-04-24 20:17 -22.95594 -176.08708 28701 ft 491 kts 22°
2026-04-24 20:17 -22.92565 -176.07021 28218 ft 485 kts 22°
2026-04-24 20:18 -22.90561 -176.05905 27905 ft 481 kts 22°
2026-04-24 20:18 -22.86621 -176.03717 27282 ft 474 kts 22°
2026-04-24 20:18 -22.83698 -176.02095 26817 ft 469 kts 22°
2026-04-24 20:18 -22.80809 -176.00494 26381 ft 463 kts 22°
2026-04-24 20:19 -22.77965 -175.98918 25965 ft 457 kts 22°
2026-04-24 20:19 -22.75138 -175.97353 25547 ft 452 kts 22°
2026-04-24 20:19 -22.72360 -175.95816 25143 ft 446 kts 22°
2026-04-24 20:19 -22.69611 -175.94295 24740 ft 441 kts 22°
2026-04-24 20:20 -22.66904 -175.92798 24310 ft 437 kts 22°
2026-04-24 20:20 -22.64207 -175.91307 23890 ft 433 kts 22°
2026-04-24 20:20 -22.61516 -175.89822 23473 ft 429 kts 22°
2026-04-24 20:20 -22.58894 -175.88374 23066 ft 425 kts 22°
2026-04-24 20:21 -22.56265 -175.86923 22643 ft 421 kts 22°
2026-04-24 20:21 -22.53665 -175.85489 22214 ft 419 kts 22°
2026-04-24 20:21 -22.51089 -175.84070 21790 ft 416 kts 22°
2026-04-24 20:21 -22.48516 -175.82652 21346 ft 415 kts 22°
2026-04-24 20:22 -22.45925 -175.81224 20908 ft 412 kts 23°
2026-04-24 20:22 -22.43385 -175.79826 20467 ft 411 kts 23°
2026-04-24 20:22 -22.40858 -175.78435 20032 ft 409 kts 24°
2026-04-24 20:22 -22.38312 -175.77048 19592 ft 406 kts 22°
2026-04-24 20:23 -22.35732 -175.75816 19151 ft 403 kts 19°
2026-04-24 20:23 -22.33129 -175.74779 18707 ft 400 kts 15°
2026-04-24 20:23 -22.30472 -175.73889 18274 ft 398 kts 14°
2026-04-24 20:23 -22.27831 -175.73033 17841 ft 396 kts 14°
2026-04-24 20:24 -22.25162 -175.72172 17399 ft 394 kts 14°
2026-04-24 20:24 -22.22544 -175.71326 16981 ft 393 kts 14°
2026-04-24 20:24 -22.19933 -175.70480 16562 ft 390 kts 14°
2026-04-24 20:24 -22.17351 -175.69646 16159 ft 388 kts 14°
2026-04-24 20:25 -22.14760 -175.68808 15748 ft 386 kts 14°
2026-04-24 20:25 -22.12193 -175.67978 15346 ft 383 kts 14°
2026-04-24 20:25 -22.09659 -175.67158 14954 ft 380 kts 14°
2026-04-24 20:25 -22.07125 -175.66339 14561 ft 378 kts 14°
2026-04-24 20:26 -22.04600 -175.65521 14162 ft 375 kts 14°
2026-04-24 20:26 -22.02135 -175.64726 13775 ft 372 kts 15°
2026-04-24 20:26 -21.99658 -175.63927 13382 ft 370 kts 15°
2026-04-24 20:26 -21.97195 -175.63132 12986 ft 367 kts 15°
2026-04-24 20:27 -21.94759 -175.62343 12599 ft 364 kts 15°
2026-04-24 20:27 -21.92319 -175.61556 12198 ft 362 kts 15°
2026-04-24 20:27 -21.89928 -175.60783 11807 ft 359 kts 15°
2026-04-24 20:27 -21.87538 -175.60013 11416 ft 357 kts 15°
2026-04-24 20:28 -21.85177 -175.59251 11023 ft 355 kts 15°
2026-04-24 20:28 -21.82794 -175.58484 10612 ft 353 kts 15°
2026-04-24 20:28 -21.80453 -175.57730 10374 ft 345 kts 15°
2026-04-24 20:28 -21.78204 -175.57004 10259 ft 334 kts 15°
2026-04-24 20:29 -21.75990 -175.56290 10167 ft 323 kts 15°
2026-04-24 20:29 -21.73865 -175.55605 10091 ft 312 kts 15°
2026-04-24 20:29 -21.71815 -175.54945 10020 ft 302 kts 15°
2026-04-24 20:29 -21.69846 -175.54311 9971 ft 291 kts 15°
2026-04-24 20:30 -21.67933 -175.53696 9853 ft 284 kts 15°
2026-04-24 20:30 -21.66033 -175.53084 9552 ft 285 kts 15°
2026-04-24 20:30 -21.64122 -175.52470 9255 ft 285 kts 15°
2026-04-24 20:30 -21.62214 -175.51857 8963 ft 284 kts 15°
2026-04-24 20:31 -21.60321 -175.51251 8682 ft 284 kts 16°
2026-04-24 20:31 -21.58436 -175.50647 8404 ft 283 kts 16°
2026-04-24 20:31 -21.56534 -175.50038 8124 ft 283 kts 16°
2026-04-24 20:31 -21.54666 -175.49437 7852 ft 282 kts 17°
2026-04-24 20:32 -21.52763 -175.48827 7581 ft 281 kts 17°
2026-04-24 20:32 -21.50890 -175.48225 7300 ft 280 kts 17°
2026-04-24 20:32 -21.49062 -175.47638 7028 ft 271 kts 17°
2026-04-24 20:32 -21.47284 -175.47069 6796 ft 263 kts 17°
2026-04-24 20:33 -21.45507 -175.46498 6540 ft 264 kts 17°
2026-04-24 20:33 -21.43756 -175.45937 6280 ft 264 kts 18°
2026-04-24 20:33 -21.41994 -175.45373 6026 ft 264 kts 18°
2026-04-24 20:33 -21.40238 -175.44810 5776 ft 264 kts 18°
2026-04-24 20:34 -21.38473 -175.44244 5521 ft 264 kts 18°
2026-04-24 20:34 -21.36689 -175.43672 5261 ft 264 kts 18°
2026-04-24 20:34 -21.34940 -175.43112 5010 ft 264 kts 18°
2026-04-24 20:34 -21.33165 -175.42545 4758 ft 264 kts 18°
2026-04-24 20:35 -21.31398 -175.41977 4505 ft 264 kts 18°
2026-04-24 20:35 -21.29639 -175.41415 4256 ft 264 kts 18°
2026-04-24 20:35 -21.27875 -175.40849 4005 ft 263 kts 18°
2026-04-24 20:35 -21.26135 -175.40295 3721 ft 256 kts 19°
2026-04-24 20:36 -21.24460 -175.39760 3504 ft 243 kts 19°
2026-04-24 20:36 -21.22883 -175.39256 3291 ft 232 kts 19°
2026-04-24 20:36 -21.21361 -175.38770 3107 ft 225 kts 19°
2026-04-24 20:36 -21.19930 -175.38110 2886 ft 222 kts 36°
2026-04-24 20:37 -21.18813 -175.37035 2825 ft 211 kts 52°
2026-04-24 20:37 -21.17921 -175.35843 2824 ft 199 kts 54°
2026-04-24 20:37 -21.17092 -175.34686 2809 ft 188 kts 54°
2026-04-24 20:37 -21.16318 -175.33609 2801 ft 176 kts 54°
2026-04-24 20:38 -21.15597 -175.32614 2801 ft 162 kts 54°
2026-04-24 20:38 -21.15061 -175.31636 2752 ft 143 kts 79°
2026-04-24 20:38 -21.15168 -175.30620 2736 ft 137 kts 110°
2026-04-24 20:38 -21.15567 -175.29692 2735 ft 137 kts 117°
2026-04-24 20:39 -21.16037 -175.28806 2698 ft 137 kts 120°
2026-04-24 20:39 -21.16532 -175.27930 2640 ft 137 kts 121°
2026-04-24 20:39 -21.17035 -175.27060 2461 ft 137 kts 121°
2026-04-24 20:39 -21.17537 -175.26198 2273 ft 136 kts 121°
2026-04-24 20:40 -21.18033 -175.25349 2093 ft 135 kts 121°
2026-04-24 20:40 -21.18533 -175.24495 1912 ft 135 kts 122°
2026-04-24 20:40 -21.19030 -175.23644 1732 ft 135 kts 122°
2026-04-24 20:40 -21.19531 -175.22788 1548 ft 134 kts 122°
2026-04-24 20:41 -21.20023 -175.21945 1374 ft 134 kts 122°
2026-04-24 20:41 -21.20523 -175.21091 1195 ft 134 kts 123°
2026-04-24 20:41 -21.21016 -175.20248 1019 ft 133 kts 123°
2026-04-24 20:41 -21.21506 -175.19409 839 ft 133 kts 123°
2026-04-24 20:42 -21.21996 -175.18570 668 ft 133 kts 123°
2026-04-24 20:42 -21.22492 -175.17723 490 ft 133 kts 123°
2026-04-24 20:42 -21.22970 -175.16875 266 ft 133 kts 123°
2026-04-24 20:42 -21.23471 -175.16046 130 ft 132 kts 125°
2026-04-24 20:43 -21.23951 -175.15224 120 ft 122 kts 123°
2026-04-24 20:43 -21.24344 -175.14610 125 ft 75 kts 107°
2026-04-24 20:43 -21.24497 -175.14290 126 ft 32 kts 126°
2026-04-24 20:43 -21.24626 -175.14105 129 ft 29 kts 123°
2026-04-24 20:44 -21.24665 -175.13953 130 ft 7 kts 82°
2026-04-24 20:44 -21.24673 -175.13925 130 ft 2 kts 146°
2026-04-24 20:44 -21.24698 -175.13925 131 ft 3 kts 220°
2026-04-24 20:44 -21.24691 -175.13963 131 ft 8 kts 296°
2026-04-24 20:45 -21.24658 -175.14033 130 ft 12 kts 296°
2026-04-24 20:45 -21.24613 -175.14125 128 ft 15 kts 300°
2026-04-24 20:45 -21.24553 -175.14227 127 ft 17 kts 302°
2026-04-24 20:45 -21.24477 -175.14320 125 ft 16 kts 336°
2026-04-24 20:46 -21.24361 -175.14299 125 ft 17 kts 21°
2026-04-24 20:46 -21.24266 -175.14238 125 ft 13 kts 15°
2026-04-24 20:46 -21.24190 -175.14256 125 ft 4 kts
2026-04-24 20:46 -21.24185 -175.14255 125 ft 0 kts 19°